www.pogodaiklimat.ru

ПОГОДА в Kota Kinabalu

  • Прогноз погоды в Kota Kinabalu
  • Монитор погоды в Kota Kinabalu
  • Климат города

АРХИВ ПОГОДЫ в Kota Kinabalu

Время (UTC), дата Ветер
(напр.,м/с)
 
Видим.   Явления Облачность Т
(С)
Тd
(С)
f
(%)
Тe
(С)
Тes
(С)
Комфортность P
(гПа)
Po
(гПа)
Тmin
(С)
Tmax
(С)
R
(мм)
S
(см)
09 10.01 СЗ 1 25 км 8/3 420 м
[Cu Sc Ac lent Ci sp]
+31.5 +22.7 60 +41 +42 опасность
перегрева
1005.9 1005.6
12 10.01 штиль 0 18 км 8/3 420 м
[Cu Sc Ac lent Ci sp]
+27.7 +22.3 72 +36 +36 очень
душно
1007.7 1007.4 +33.4
15 10.01 ЮВ 3 18 км 8/3 420 м
[Cu Sc Ac lent Cs]
+25.2 +21.8 81 +32 +32 очень
душно
1009.3 1009.0
18 10.01 ЮВ 3 18 км 8/3 420 м
[Cu Sc Ac lent Cs]
+24.1 +21.6 86 +31 +31 очень
душно
1007.9 1007.6
21 10.01 В 2 18 км 8/3 420 м
[Cu Sc Ac lent Cs]
+23.8 +21.2 85 +30 +30 очень
душно
1006.8 1006.5
00 11.01 ЮВ 2 28 км 8/1 450 м
[Cu Sc Ac trans Ci sp]
+26.6 +21.8 75 +34 +36 очень
душно
1008.8 1008.5 +23.5
03 11.01 ЮЗ 3 28 км 8/1 450 м
[Cu Sc Ac trans Ci sp]
+32.0 +24.3 64 +44 +52 опасность
перегрева
1008.5 1008.2
06 11.01 З 1 25 км 8/1 420 м
[Cu Sc Ac lent Ci sp]
+34.1 +25.6 61 +49 +58 опасность
перегрева
1006.0 1005.7
09 11.01 З 2 25 км 8/1 420 м
[Cu Sc Ac lent Ci sp]
+30.5 +25.0 73 +44 +45 опасность
перегрева
1005.7 1005.4
12 11.01 ЮЗ 3 18 км 8/3 420 м
[Cu Sc Ac lent Cs]
+28.9 +23.8 74 +40 +40 очень
душно
1007.7 1007.4 +34.7
15 11.01 В 2 18 км 8/3 420 м
[Cu Sc Ac lent Cs]
+26.8 +24.0 85 +37 +37 очень
душно
1008.5 1008.2
18 11.01 В 3 9000 м слабый дождь 8/4 420 м
[Cu Sc Ac lent Cs]
+25.2 +23.8 92 +34 +34 очень
душно
1007.7 1007.4 2
21 11.01 В 2 18 км {дождь} 8/3 420 м
[Cu Sc Ac lent Cs]
+24.9 +23.3 91 +33 +33 очень
душно
1007.0 1006.7
00 12.01 ЮВ 2 28 км {дождь} 8/1 420 м
[Cu Sc Ac lent Ci sp]
+27.7 +22.9 75 +37 +39 очень
душно
1008.5 1008.2 +24.4 2
03 12.01 ЮЗ 2 28 км 8/1 420 м
[Cu Sc Ac lent Ci sp]
+32.0 +24.9 66 +45 +54 опасность
перегрева
1009.0 1008.7
06 12.01 З 1 25 км 8/3 420 м
[Cu Sc Ac lent Ci sp]
+32.8 +26.3 69 +49 +57 опасность
перегрева
1006.3 1006.0
09 12.01 З 2 20 км 8/3 420 м
[Cu Sc Ac lent Ci sp]
+32.2 +26.2 71 +48 +49 опасность
перегрева
1005.6 1005.3
12 12.01 Ю 2 18 км 8/3 420 м
[Cu Sc Ac lent Cs]
+29.0 +25.0 79 +42 +42 опасность
перегрева
1006.9 1006.6 +34.0
15 12.01 Ю 4 7000 м гроза, ливневой дождь 10/5 400 м
[Cb cap Ac lent Cs]
+25.5 +23.9 91 +35 +35 очень
душно
1008.9 1008.6
18 12.01 ЮВ 2 18 км в посл. час дождь 8/4 420 м
[Cu Sc Ac lent Cs]
+25.9 +24.6 93 +37 +37 очень
душно
1006.9 1006.6 7
21 12.01 В 2 18 км 8/1 420 м
[Cu Sc Ac lent Cs]
+25.0 +23.4 91 +34 +34 очень
душно
1007.2 1006.9
00 13.01 ЮВ 2 28 км {дождь} 8/3 450 м
[Cu Sc Ac lent Ci sp]
+27.3 +23.7 81 +37 +39 очень
душно
1009.2 1008.9 +24.7 7
03 13.01 ЮЗ 2 25 км 8/3 420 м
[Cu Sc Ac lent Ci sp]
+32.5 +26.2 69 +48 +55 опасность
перегрева
1009.0 1008.7
06 13.01 З 2 25 км 8/3 420 м
[Cu Sc Ac lent Ci sp]
+34.1 +27.3 68 +53 +60 опасность
перегрева
1006.6 1006.3
09 13.01 З 1 25 км 8/3 420 м
[Cu Sc Ac lent Cs]
+32.1 +26.7 73 +49 +50 опасность
перегрева
1005.9 1005.6
12 13.01 ЮЗ 2 18 км 8/3 420 м
[Cu Sc Ac lent Cs]
+29.3 +24.9 77 +42 +42 опасность
перегрева
1008.0 1007.7 +34.3
15 13.01 З 1 18 км 8/1 420 м
[Cu Sc Ac lent Cs]
+28.7 +25.2 81 +42 +42 опасность
перегрева
1009.1 1008.8
18 13.01 В 2 9000 м слабый дождь 10/4 400 м
[Cu Sc Ac lent Cs]
+24.4 +22.8 91 +32 +32 очень
душно
1008.6 1008.3 7
21 13.01 В 2 18 км 8/3 420 м
[Cu Sc Ac lent Cs]
+24.7 +22.5 88 +32 +32 очень
душно
1008.2 1007.9
00 14.01 В 2 24 км 8/3 420 м
[Cu Sc Ac lent Cs]
+26.1 +23.3 85 +35 +37 очень
душно
1009.1 1008.8 +24.1 7
03 14.01 ЮЗ 2 20 км мгла 8/3 420 м
[Cu Sc Ac lent Cs]
+31.1 +25.2 71 +45 +53 опасность
перегрева
1009.3 1009.0
06 14.01 З 2 23 км мгла 8/1 420 м
[Cu Sc Ac lent Cs]
+33.4 +26.1 66 +50 +58 опасность
перегрева
1007.4 1007.1 0.2
09 14.01 З 1 20 км мгла 8/1 420 м
[Cu Sc Ac lent Cs]
+31.9 +25.8 70 +47 +48 опасность
перегрева
1007.7 1007.4
12 14.01 СЗ 1 15 км мгла 8/1 420 м
[Cu Sc Ac lent Cs]
+29.0 +25.4 81 +43 +43 опасность
перегрева
1009.6 1009.3 +33.7
15 14.01 ЮВ 2 15 км мгла 8/1 420 м
[Cu Sc Ac lent Cs]
+27.5 +24.9 86 +39 +39 очень
душно
1010.4 1010.1
18 14.01 В 2 15 км мгла 8/1 420 м
[Cu Sc Ac lent Cs]
+26.6 +24.5 88 +37 +37 очень
душно
1010.1 1009.8
21 14.01 В 3 15 км мгла 8/1 420 м
[Cu Sc Ac lent Cs]
+25.7 +23.9 90 +35 +35 очень
душно
1010.0 1009.7
00 15.01 В 2 20 км мгла 8/3 420 м
[Cu Sc Ac lent Cs]
+27.3 +24.2 83 +38 +39 очень
душно
1011.6 1011.3 +25.2
03 15.01 СЗ 1 20 км мгла 8/3 420 м
[Cu Sc Ac lent Cs]
+31.4 +25.4 71 +46 +54 опасность
перегрева
1010.9 1010.6
06 15.01 СЗ 2 20 км мгла 8/3 420 м
[Cu Sc Ac lent Cs]
+32.3 +25.6 68 +47 +54 опасность
перегрева
1008.8 1008.5
09 15.01 СЗ 2 15 км осадки на расстоянии 8/3 420 м
[Cu Sc Ac lent Cs]
+30.0 +24.8 74 +43 +44 опасность
перегрева
1008.9 1008.6
12 15.01 В 4 15 км слабый дождь 9/4 400 м
[Cu Sc Ac lent Cs]
+25.6 +22.5 83 +34 +34 очень
душно
1010.3 1010.0 +33.3 0.6
15 15.01 В 2 18 км {дождь} 8/3 420 м
[Cu Sc Ac lent Cs]
+25.1 +22.7 87 +33 +33 очень
душно
1011.1 1010.8
18 15.01 В 3 18 км 8/1 420 м
[Cu Sc Ac lent Cs]
+24.2 +21.4 84 +31 +31 очень
душно
1010.0 1009.7
21 15.01 В 3 18 км 8/1 420 м
[Cu Sc Ac lent Cs]
+23.7 +21.6 88 +30 +30 очень
душно
1010.1 1009.8
00 16.01 В 3 28 км {дождь} 8/1 420 м
[Cu Sc Ac lent Ci sp]
+26.5 +22.6 79 +35 +36 очень
душно
1011.4 1011.1 +23.6 0.6
03 16.01 СЗ 1 28 км 8/1 420 м
[Cu Sc Ac lent Ci sp]
+31.2 +24.5 68 +44 +55 опасность
перегрева
1010.9 1010.6
06 16.01 СЗ 3 28 км 8/3 420 м
[Cu Sc Ac lent Ci sp]
+32.0 +24.3 64 +44 +50 опасность
перегрева
1008.0 1007.7
09 16.01 СЗ 2 25 км 8/3 420 м
[Cu Sc Ac lent Ci sp]
+30.3 +24.8 72 +43 +44 опасность
перегрева
1007.8 1007.5
12 16.01 В 3 18 км 8/3 420 м
[Cu Sc Ac lent Cs]
+27.9 +23.2 76 +38 +38 очень
душно
1009.5 1009.2 +32.3
15 16.01 В 2 18 км 8/3 420 м
[Cu Sc Ac lent Cs]
+25.7 +23.0 85 +34 +34 очень
душно
1010.0 1009.7
18 16.01 В 2 18 км 8/1 420 м
[Cu Sc Ac lent Cs]
+24.6 +21.7 84 +31 +31 очень
душно
1009.3 1009.0
21 16.01 ЮВ 3 18 км 8/1 420 м
[Cu Sc Ac lent Cs]
+24.4 +21.4 83 +31 +31 очень
душно
1008.7 1008.4
00 17.01 В 3 25 км 8/3 420 м
[Cu Sc Ac lent Cs]
+26.0 +21.8 78 +33 +35 очень
душно
1010.5 1010.2 +23.9
03 17.01 СЗ 3 25 км 8/3 420 м
[Cu Sc Ac lent Cs]
+31.2 +24.0 66 +43 +49 опасность
перегрева
1010.7 1010.4
06 17.01 СЗ 1 25 км 8/3 420 м
[Cu Sc Ac lent Cs]
+31.5 +24.4 66 +44 +52 опасность
перегрева
1008.6 1008.3

 

Местоположение метеостанции Kota Kinabalu (Малайзия): широта 5.93 долгота 116.05 высота над уровнем моря 3 м.

В архиве по умолчанию представлена погода в Kota Kinabalu за последнюю неделю. Архивные данные за месяц целиком и за предыдущие месяцы, начиная с января 2011 года, Вы можете получить, выбрав интересующий диапазон дат из раскрывающегося списка и нажав кнопку "Ввод!".

Внимание! Время в таблицах - всемирное. Для получения местного времени необходимо прибавить поправку, которая в Kota Kinabalu равна 8 ч.

Ветер - указаны скорость ветра в м/с - средняя за 10 мин, порывы в срок и между сроками (в фигурных скобках) и направление, откуда дует ветер: С - северный, СВ - северо-восточный, В - восточный, ЮВ - юго-восточный, Ю - южный, ЮЗ - юго-западный, З - западный, СЗ - северо-западный.
Видимость - горизонтальная дальность видимости в метрах или километрах. При видимости от 1 до 10 км при отсутствии осадков обычно наблюдается дымка, при ухудшении видимости до 1 км и менее - туман. В сухую погоду видимость может ухудшаться дымом, пылью или мглою.
Явления - указаны атмосферные явления, наблюдавшиеся в срок или в последний час перед сроком; фигурными скобками обозначены явления, наблюдавшиеся между сроками (за 1-3 часа до срока); квадратными скобками обозначены град или гололедные отложения с указанием их диаметра в мм.
Облачность - указаны через наклонную черту общая и нижняя облачность в баллах и высота нижней границы облаков в метрах; квадратными скобками обозначены формы облаков: Ci - перистые, Cs - перисто-слоистые, Cc - перисто-кучевые, Ac - высококучевые, As - высокослоистые, Sc - слоисто-кучевые, Ns - слоисто-дождевые, Cu - кучевые, Cb - кучево-дождевые. Подробнее классификацию облаков см. в Атласе облаков (PDF).
T - Температура воздуха - температура, измеренная на высоте 2 м над землей.
Td - Температура точки росы - температура, при понижении до которой содержащийся в воздухе водяной пар достигнет насыщения.
f - Относительная влажность воздуха - влажноcть воздуха, измеренная на высоте 2 м над землей.
Te - Эффективная температура - температура, которую ощущает одетый по сезону человек в тени. Характеристика душности погоды. При расчете учитывается влияние влажности воздуха и скорости ветра на теплоощущения человека.
Tes - Эффективная температура на солнце - температура, которую ощущает человек, с поправкой на солнечный нагрев. Характеристика знойности погоды. Зависит от высоты солнца над горизонтом, облачности и скорости ветра. Ночью, в пасмурную погоду, а также при ветре 12 м/с и более поправка равна нулю.
P - Атмосферное давление - приведенное к уровню моря атмосферное давление.
Po - Атмосферное давление - измеренное на уровне метеостанции атмосферное давление.
Tmin - Минимальная температура - минимум температуры воздуха на высоте 2 м над землей.
Tmax - Максимальная температура - максимум температуры воздуха на высоте 2 м над землей.
R - Количество осадков - Количество выпавших осадков, мм. При наведении курсора мыши на число - период времени, за который выпало указанное количество осадков.
S - Снежный покров - Высота снежного покрова, см. При наведении курсора мыши на число - состояние снежного покрова и степень покрытия местности в баллах.